Retour au catalogue

COSMOS 1348 DEB

LostHEO
NORAD 35515·DEBRIS·🇷🇺 Russia

Lancé Apr 7, 1982 depuis Plesetsk Cosmodrome

Loading…

Prochains Passages (prochaines 24 heures)

TLE

PériméSource: Space-Track

Époque: Jun 6, 2014, 11:22 UTC

1 35515U 82029N   14157.47362367 -.00000060  00000-0  00000+0 0  9992
2 35515  69.7663 242.9338 5130104 118.4337 261.0657  2.05421639 55997

Suivez COSMOS 1348 DEB en temps réel avec AllMySat

Download on the App Store